TimeMDT,TemperatureF,Dew PointF,Humidity,Sea Level PressureIn,VisibilityMPH,Wind Direction,Wind SpeedMPH,Gust SpeedMPH,PrecipitationIn,Events,Conditions,WindDirDegrees,DateUTC
12:17 AM,37.4,35.6,93,30.11,5.0,NNE,3.5,-,N/A,,Overcast,20,2013-04-03 06:17:00
12:38 AM,35.6,35.6,100,30.11,7.0,NE,3.5,-,N/A,,Overcast,50,2013-04-03 06:38:00
12:58 AM,37.4,35.6,93,30.12,10.0,Calm,Calm,-,N/A,,Overcast,0,2013-04-03 06:58:00
1:18 AM,37.4,35.6,93,30.11,7.0,Calm,Calm,-,N/A,,Overcast,0,2013-04-03 07:18:00
1:38 AM,37.4,35.6,93,30.12,10.0,Calm,Calm,-,N/A,,Overcast,0,2013-04-03 07:38:00
1:57 AM,37.4,35.6,93,30.11,10.0,Calm,Calm,-,N/A,,Overcast,0,2013-04-03 07:57:00
2:18 AM,37.4,35.6,93,30.10,7.0,Calm,Calm,-,N/A,,Light Drizzle,0,2013-04-03 08:18:00
2:37 AM,37.4,35.6,93,30.10,7.0,WSW,3.5,-,N/A,,Drizzle,240,2013-04-03 08:37:00
2:58 AM,37.4,35.6,93,30.10,5.0,West,4.6,-,N/A,Rain,Light Rain,260,2013-04-03 08:58:00
3:18 AM,37.4,35.6,93,30.09,5.0,West,3.5,-,N/A,,Light Drizzle,270,2013-04-03 09:18:00
3:38 AM,37.4,35.6,93,30.10,5.0,West,5.8,-,N/A,,Light Drizzle,280,2013-04-03 09:38:00
3:58 AM,37.4,35.6,93,30.10,5.0,WNW,4.6,-,N/A,,Drizzle,290,2013-04-03 09:58:00
4:18 AM,37.4,35.6,93,30.10,5.0,West,5.8,-,N/A,,Overcast,280,2013-04-03 10:18:00
4:38 AM,37.4,35.6,93,30.10,4.0,West,4.6,-,N/A,,Overcast,280,2013-04-03 10:38:00
4:58 AM,37.4,35.6,93,30.10,4.0,West,5.8,-,N/A,,Overcast,280,2013-04-03 10:58:00
5:18 AM,37.4,35.6,93,30.10,4.0,WNW,5.8,-,N/A,,Overcast,300,2013-04-03 11:18:00
5:38 AM,37.4,35.6,93,30.10,7.0,NNW,5.8,-,N/A,,Overcast,330,2013-04-03 11:38:00
5:58 AM,37.4,35.6,93,30.12,7.0,NNW,4.6,-,N/A,,Overcast,340,2013-04-03 11:58:00
6:18 AM,37.4,35.6,93,30.12,7.0,North,6.9,-,N/A,,Overcast,350,2013-04-03 12:18:00
6:38 AM,37.4,35.6,93,30.12,4.0,North,4.6,-,N/A,,Overcast,10,2013-04-03 12:38:00
6:58 AM,35.6,35.6,100,30.13,5.0,North,4.6,-,N/A,,Overcast,350,2013-04-03 12:58:00
6:59 AM,35.6,35.6,100,30.13,5.0,North,4.6,-,N/A,,Overcast,350,2013-04-03 12:59:00
8:47 AM,37.4,37.4,100,30.14,7.0,Calm,Calm,-,N/A,,Unknown,0,2013-04-03 14:47:00
9:47 AM,41.0,37.4,87,30.14,10.0,SW,5.8,-,N/A,,Overcast,230,2013-04-03 15:47:00
10:48 AM,44.6,37.4,76,30.13,10.0,SW,5.8,-,N/A,,Mostly Cloudy,220,2013-04-03 16:48:00
11:48 AM,46.4,37.4,71,30.12,10.0,Calm,Calm,-,N/A,,Scattered Clouds,0,2013-04-03 17:48:00
12:48 PM,50.0,35.6,58,30.11,10.0,Calm,Calm,-,N/A,,Scattered Clouds,0,2013-04-03 18:48:00
1:55 PM,53.6,33.8,47,30.00,20.0,Calm,Calm,-,N/A,,Partly Cloudy,0,2013-04-03 19:55:00
2:55 PM,55.4,30.2,38,30.08,20.0,Calm,Calm,-,N/A,,Partly Cloudy,0,2013-04-03 20:55:00
3:58 PM,57.2,28.4,33,30.07,20.0,NE,5.8,-,N/A,,Partly Cloudy,50,2013-04-03 21:58:00
4:50 PM,59.0,23.0,25,30.06,20.0,NNE,5.8,-,N/A,,Partly Cloudy,30,2013-04-03 22:50:00
5:50 PM,59.0,23.0,25,30.06,20.0,East,6.9,-,N/A,,Partly Cloudy,90,2013-04-03 23:50:00
6:50 PM,55.4,26.6,33,30.06,20.0,East,6.9,-,N/A,,Partly Cloudy,90,2013-04-04 00:50:00
7:55 PM,50.0,28.4,43,30.09,10.0,SSE,5.8,-,N/A,,Scattered Clouds,150,2013-04-04 01:55:00
8:59 PM,44.6,32.0,61,30.11,10.0,SSE,6.9,-,N/A,,Scattered Clouds,160,2013-04-04 02:59:00
9:19 PM,42.8,32.0,66,30.12,10.0,SSE,6.9,-,N/A,,Scattered Clouds,160,2013-04-04 03:19:00
9:38 PM,42.8,32.0,66,30.12,10.0,South,4.6,-,N/A,,Clear,170,2013-04-04 03:38:00
9:58 PM,42.8,32.0,66,30.13,10.0,South,6.9,-,N/A,,Scattered Clouds,180,2013-04-04 03:58:00
10:18 PM,44.6,32.0,61,30.13,10.0,South,6.9,-,N/A,,Scattered Clouds,190,2013-04-04 04:18:00
10:38 PM,44.6,32.0,61,30.13,10.0,South,6.9,-,N/A,,Mostly Cloudy,190,2013-04-04 04:38:00
10:58 PM,44.6,32.0,61,30.14,10.0,SSW,5.8,-,N/A,,Scattered Clouds,210,2013-04-04 04:58:00
11:17 PM,46.4,30.2,53,30.14,10.0,SW,8.1,-,N/A,,Clear,220,2013-04-04 05:17:00
11:38 PM,44.6,32.0,61,30.14,10.0,SW,6.9,-,N/A,,Clear,230,2013-04-04 05:38:00
11:58 PM,44.6,30.2,57,30.14,10.0,SSW,5.8,-,N/A,,Clear,210,2013-04-04 05:58:00